| time (UTC) | temp F | wind direction | speed MPH | gust MPH | rain 1hr in | rain 24hr in | rain mn in | humidity % | barometer mb |
| 20260502213516 | 57 | 71 | 3.0 | 7.0 | 0.00 | 0.00 | 0.00 | 73 | 1018.5 |
| 20260502212516 | 58 | 75 | 2.0 | 6.0 | 0.00 | 0.00 | 0.00 | 72 | 1018.5 |
| 20260502211516 | 58 | 73 | 2.0 | 6.0 | 0.00 | 0.00 | 0.00 | 72 | 1018.4 |
| 20260502210516 | 57 | 63 | 2.0 | 5.0 | 0.00 | 0.00 | 0.00 | 72 | 1018.5 |
| 20260502205556 | 57 | 65 | 2.0 | 6.0 | 0.00 | 0.00 | 0.00 | 72 | 1018.5 |
| 20260502204515 | 57 | 65 | 2.0 | 6.0 | 0.00 | 0.00 | 0.00 | 72 | 1018.5 |
| 20260502203535 | 57 | 38 | 3.0 | 5.0 | 0.00 | 0.00 | 0.00 | 71 | 1018.5 |
| 20260502202517 | 57 | 13 | 3.0 | 4.0 | 0.00 | 0.00 | 0.00 | 71 | 1018.5 |
| 20260502201517 | 58 | 9 | 3.0 | 4.0 | 0.00 | 0.00 | 0.00 | 69 | 1018.5 |
| 20260502200517 | 59 | 9 | 3.0 | 4.0 | 0.00 | 0.00 | 0.00 | 68 | 1018.5 |
| 20260502195557 | 59 | 50 | 2.0 | 3.0 | 0.00 | 0.00 | 0.00 | 66 | 1018.5 |
| 20260502194516 | 60 | 138 | 0.0 | 1.0 | 0.00 | 0.00 | 0.00 | 64 | 1018.4 |
| 20260502193536 | 61 | 138 | 1.0 | 2.0 | 0.00 | 0.00 | 0.00 | 62 | 1018.2 |
| 20260502192516 | 62 | 138 | 1.0 | 4.0 | 0.00 | 0.00 | 0.00 | 60 | 1018.2 |
| 20260502191516 | 63 | 139 | 1.0 | 3.0 | 0.00 | 0.00 | 0.00 | 59 | 1018.1 |
| 20260502190516 | 64 | 133 | 1.0 | 4.0 | 0.00 | 0.00 | 0.00 | 57 | 1018.1 |
| 20260502185515 | 65 | 134 | 1.0 | 3.0 | 0.00 | 0.00 | 0.00 | 56 | 1018.0 |
| 20260502184517 | 66 | 142 | 1.0 | 4.0 | 0.00 | 0.00 | 0.00 | 54 | 1018.0 |
| 20260502183516 | 67 | 141 | 1.0 | 6.0 | 0.00 | 0.00 | 0.00 | 52 | 1017.9 |
| 20260502182556 | 67 | 139 | 2.0 | 4.0 | 0.00 | 0.00 | 0.00 | 50 | 1017.8 |
| 20260502181515 | 68 | 160 | 3.0 | 7.0 | 0.00 | 0.00 | 0.00 | 48 | 1017.7 |
| 20260502180536 | 69 | 162 | 1.0 | 7.0 | 0.00 | 0.00 | 0.00 | 48 | 1017.7 |
| 20260502163516 | 75 | 170 | 5.0 | 14.0 | 0.00 | 0.00 | 0.00 | 40 | 1017.8 |
| 20260502162536 | 76 | 185 | 4.0 | 13.0 | 0.00 | 0.00 | 0.00 | 39 | 1017.8 |
| 20260502161515 | 77 | 170 | 4.0 | 13.0 | 0.00 | 0.00 | 0.00 | 38 | 1017.8 |
| 20260502160515 | 77 | 184 | 8.0 | 14.0 | 0.00 | 0.00 | 0.00 | 38 | 1017.8 |
| 20260502151536 | 78 | 184 | 7.0 | 13.0 | 0.00 | 0.00 | 0.00 | 37 | 1018.4 |
| 20260502150516 | 78 | 183 | 8.0 | 11.0 | 0.00 | 0.00 | 0.00 | 37 | 1018.5 |
| 20260502130517 | 78 | 217 | 9.0 | 17.0 | 0.00 | 0.00 | 0.00 | 36 | 1019.9 |
| 20260502123516 | 79 | 193 | 6.0 | 15.0 | 0.00 | 0.00 | 0.00 | 36 | 1020.2 |
| 20260502122516 | 79 | 185 | 7.0 | 12.0 | 0.00 | 0.00 | 0.00 | 36 | 1020.4 |
| 20260502121516 | 78 | 223 | 8.0 | 12.0 | 0.00 | 0.00 | 0.00 | 37 | 1020.5 |
| 20260502120515 | 78 | 218 | 5.0 | 12.0 | 0.00 | 0.00 | 0.00 | 37 | 1020.6 |
| 20260502115516 | 77 | 201 | 9.0 | 13.0 | 0.00 | 0.00 | 0.00 | 38 | 1020.7 |
| 20260502114636 | 77 | 182 | 8.0 | 16.0 | 0.00 | 0.00 | 0.00 | 37 | 1020.9 |
| 20260502113517 | 77 | 196 | 4.0 | 16.0 | 0.00 | 0.00 | 0.00 | 38 | 1021.0 |
| 20260502112517 | 77 | 224 | 6.0 | 15.0 | 0.00 | 0.00 | 0.00 | 39 | 1021.1 |
| 20260502111517 | 77 | 224 | 10.0 | 17.0 | 0.00 | 0.00 | 0.00 | 38 | 1021.3 |
| 20260502110516 | 77 | 182 | 3.0 | 14.0 | 0.00 | 0.00 | 0.00 | 39 | 1021.5 |
| 20260502105516 | 76 | 200 | 7.0 | 12.0 | 0.00 | 0.00 | 0.00 | 40 | 1021.6 |
| 20260502104516 | 75 | 198 | 8.0 | 13.0 | 0.00 | 0.00 | 0.00 | 42 | 1021.7 |
| 20260502103517 | 75 | 218 | 6.0 | 13.0 | 0.00 | 0.00 | 0.00 | 40 | 1021.8 |
| 20260502102517 | 75 | 216 | 6.0 | 12.0 | 0.00 | 0.00 | 0.00 | 39 | 1021.9 |
| 20260502101517 | 75 | 182 | 4.0 | 12.0 | 0.00 | 0.00 | 0.00 | 41 | 1022.0 |
| 20260502100537 | 75 | 209 | 5.0 | 11.0 | 0.00 | 0.00 | 0.00 | 40 | 1022.1 |
| 20260502091515 | 72 | 181 | 4.0 | 7.0 | 0.00 | 0.00 | 0.00 | 41 | 1022.6 |
| 20260502090515 | 71 | 170 | 3.0 | 6.0 | 0.00 | 0.00 | 0.00 | 43 | 1022.7 |
| 20260502071515 | 63 | 37 | 1.0 | 5.0 | 0.00 | 0.00 | 0.00 | 57 | 1023.3 |
| 20260502070515 | 62 | 73 | 2.0 | 5.0 | 0.00 | 0.00 | 0.00 | 58 | 1023.4 |
| 20260502065517 | 61 | 40 | 2.0 | 6.0 | 0.00 | 0.00 | 0.00 | 59 | 1023.5 |
| 20260502064517 | 61 | 53 | 4.0 | 7.0 | 0.00 | 0.00 | 0.00 | 60 | 1023.5 |
| 20260502063516 | 60 | 59 | 1.0 | 5.0 | 0.00 | 0.00 | 0.00 | 61 | 1023.6 |
| 20260502062516 | 60 | 36 | 1.0 | 7.0 | 0.00 | 0.00 | 0.00 | 62 | 1023.6 |
| 20260502061515 | 59 | 38 | 3.0 | 6.0 | 0.00 | 0.00 | 0.00 | 62 | 1023.6 |
| 20260502060517 | 58 | 35 | 1.0 | 6.0 | 0.00 | 0.00 | 0.00 | 64 | 1023.7 |
| 20260502055517 | 57 | 45 | 2.0 | 5.0 | 0.00 | 0.00 | 0.00 | 67 | 1023.8 |
| 20260502054517 | 56 | 45 | 3.0 | 6.0 | 0.00 | 0.00 | 0.00 | 67 | 1023.8 |
| 20260502053517 | 55 | 38 | 2.0 | 4.0 | 0.00 | 0.00 | 0.00 | 69 | 1023.8 |
| 20260502052537 | 53 | 14 | 2.0 | 5.0 | 0.00 | 0.00 | 0.00 | 71 | 1023.8 |
| 20260502051516 | 52 | 16 | 2.0 | 5.0 | 0.00 | 0.00 | 0.00 | 73 | 1023.8 |
| 20260502050516 | 50 | 36 | 2.0 | 5.0 | 0.00 | 0.00 | 0.00 | 75 | 1023.8 |
| 20260502045516 | 49 | 19 | 3.0 | 5.0 | 0.00 | 0.00 | 0.00 | 76 | 1023.7 |
| 20260502044516 | 49 | 9 | 1.0 | 2.0 | 0.00 | 0.00 | 0.00 | 76 | 1023.7 |
| 20260502043516 | 48 | 9 | 0.0 | 3.0 | 0.00 | 0.00 | 0.00 | 76 | 1023.7 |
| 20260502042515 | 48 | 9 | 1.0 | 5.0 | 0.00 | 0.00 | 0.00 | 77 | 1023.6 |
| 20260502041515 | 47 | 21 | 3.0 | 6.0 | 0.00 | 0.00 | 0.00 | 78 | 1023.6 |
| 20260502040517 | 47 | 23 | 4.0 | 8.0 | 0.00 | 0.00 | 0.00 | 78 | 1023.5 |
| 20260502035517 | 47 | 27 | 6.0 | 8.0 | 0.00 | 0.00 | 0.00 | 79 | 1023.5 |
| 20260502034517 | 47 | 25 | 4.0 | 9.0 | 0.00 | 0.00 | 0.00 | 79 | 1023.5 |
| 20260502033537 | 47 | 19 | 4.0 | 6.0 | 0.00 | 0.00 | 0.00 | 78 | 1023.6 |
| 20260502032537 | 47 | 19 | 4.0 | 5.0 | 0.00 | 0.00 | 0.00 | 78 | 1023.6 |
| 20260502031516 | 47 | 13 | 2.0 | 5.0 | 0.00 | 0.00 | 0.00 | 77 | 1023.6 |
| 20260502030516 | 48 | 6 | 2.0 | 4.0 | 0.00 | 0.00 | 0.00 | 77 | 1023.6 |
| 20260502025515 | 48 | 11 | 2.0 | 5.0 | 0.00 | 0.00 | 0.00 | 77 | 1023.7 |
| 20260502024515 | 48 | 13 | 4.0 | 6.0 | 0.00 | 0.00 | 0.00 | 78 | 1023.7 |
| 20260502023515 | 48 | 18 | 3.0 | 6.0 | 0.00 | 0.00 | 0.00 | 78 | 1023.8 |
| 20260502022517 | 48 | 18 | 2.0 | 6.0 | 0.00 | 0.00 | 0.00 | 78 | 1023.8 |
| 20260502021516 | 48 | 20 | 2.0 | 9.0 | 0.00 | 0.00 | 0.00 | 78 | 1023.9 |
| 20260502020516 | 48 | 20 | 4.0 | 7.0 | 0.00 | 0.00 | 0.00 | 78 | 1023.8 |
| 20260502015536 | 48 | 18 | 2.0 | 6.0 | 0.00 | 0.00 | 0.00 | 79 | 1023.8 |
| 20260502014536 | 48 | 14 | 5.0 | 6.0 | 0.00 | 0.00 | 0.00 | 80 | 1023.9 |
| 20260502013535 | 48 | 21 | 4.0 | 5.0 | 0.00 | 0.00 | 0.00 | 80 | 1024.0 |
| 20260502012535 | 48 | 23 | 4.0 | 6.0 | 0.00 | 0.00 | 0.00 | 80 | 1024.0 |
| 20260502011515 | 48 | 20 | 2.0 | 5.0 | 0.00 | 0.00 | 0.00 | 80 | 1024.0 |
| 20260502010538 | 48 | 13 | 3.0 | 5.0 | 0.00 | 0.00 | 0.00 | 80 | 1024.0 |
| 20260502005517 | 48 | 29 | 2.0 | 4.0 | 0.00 | 0.00 | 0.00 | 79 | 1024.0 |
| 20260502004517 | 48 | 31 | 3.0 | 4.0 | 0.00 | 0.00 | 0.00 | 77 | 1023.9 |
| 20260502003516 | 48 | 33 | 2.0 | 5.0 | 0.00 | 0.00 | 0.00 | 76 | 1024.0 |
| 20260502002516 | 49 | 27 | 2.0 | 4.0 | 0.00 | 0.00 | 0.00 | 75 | 1024.1 |
| 20260502001516 | 49 | 27 | 3.0 | 5.0 | 0.00 | 0.00 | 0.00 | 75 | 1024.1 |
| 20260502000516 | 49 | 20 | 2.0 | 7.0 | 0.00 | 0.00 | 0.00 | 74 | 1024.1 |
| 20260501235516 | 50 | 22 | 4.0 | 6.0 | 0.00 | 0.00 | 0.00 | 74 | 1024.2 |
| 20260501234515 | 50 | 17 | 2.0 | 4.0 | 0.00 | 0.00 | 0.00 | 73 | 1024.2 |
| 20260501233515 | 49 | 24 | 2.0 | 4.0 | 0.00 | 0.00 | 0.00 | 72 | 1024.2 |
| 20260501232515 | 49 | 32 | 1.0 | 5.0 | 0.00 | 0.00 | 0.00 | 72 | 1024.1 |
| 20260501231517 | 49 | 39 | 4.0 | 6.0 | 0.00 | 0.00 | 0.00 | 72 | 1024.0 |
| 20260501230517 | 50 | 32 | 3.0 | 5.0 | 0.00 | 0.00 | 0.00 | 71 | 1024.0 |
| 20260501225517 | 50 | 22 | 1.0 | 5.0 | 0.00 | 0.00 | 0.00 | 71 | 1024.0 |
| 20260501224517 | 50 | 24 | 2.0 | 4.0 | 0.00 | 0.00 | 0.00 | 70 | 1024.0 |
| 20260501223516 | 50 | 34 | 3.0 | 6.0 | 0.00 | 0.00 | 0.00 | 68 | 1023.9 |
| 20260501222515 | 50 | 340 | 2.0 | 4.0 | 0.00 | 0.00 | 0.00 | 66 | 1023.8 |
| 20260501221517 | 50 | 337 | 1.0 | 4.0 | 0.00 | 0.00 | 0.00 | 65 | 1023.7 |
| 20260501220537 | 51 | 290 | 0.0 | 1.0 | 0.00 | 0.00 | 0.00 | 65 | 1023.6 |
| 20260501215517 | 51 | 0.0 | 0.0 | 0.00 | 0.00 | 0.00 | 61 | 1023.5 | |
| 20260501214517 | 52 | 0.0 | 1.0 | 0.00 | 0.00 | 0.00 | 61 | 1023.5 |